Location: Amsterdam
(30.7274°N, 84.4357°W)
Time: 07:28:18
(UTC+00:00)

Transit 2A Rocket - Pass Details

Date: 22 February 2026
Orbit: 583 x 900 km, 66.7° (Epoch: 11 March)

Event Time Altitude Azimuth Distance (km) Brightness Sun altitude
Rises 06:09:58 0° 333° (NNW) 3,262 - -69.0°
Reaches altitude 10° 06:12:28 10° 332° (NNW) 2,280 - -68.9°
Maximum altitude 06:17:39 78° 247° (WSW) 719 - -68.5°
Drops below altitude 10° 06:22:19 10° 161° (SSE) 2,064 - -68.2°
Sets 06:24:31 0° 160° (SSE) 2,929 - -68.0°
